Location: Doans Corners
(41.5042°N, 81.6124°W)
Time: 05:50:43
(UTC+00:00)

Daily predictions for brighter satellites

Satellite Brightness Start Highest point End
(mag) Time Altitude Azimuth Time Altitude Azimuth Time Altitude Azimuth
BREEZE-M DEB (TANK) 2.6 01:31:31 10° SW 01:34:17 63° SE 01:41:37 10° ENE
IRIDIUM 114 4.4 01:33:42 10° N 01:38:57 71° E 01:44:08 10° S
ARGOS Delta rocket 4.5 01:36:55 10° SE 01:40:58 35° ENE 01:44:58 10° N
Cosmos 1980 Rocket 2.8 01:35:43 10° NNW 01:41:18 59° WSW 01:46:49 10° S
Cosmos 2322 Rocket 3.7 01:38:35 10° N 01:43:08 24° NE 01:47:40 10° ESE
Cosmos 1441 Rocket 4.0 01:40:08 10° N 01:43:26 33° ENE 01:46:44 10° SE
Cosmos 1400 Rocket 4.1 01:40:46 10° SE 01:43:48 22° E 01:46:50 10° NE
COSMOS 2406 3.8 01:39:15 10° SW 01:44:57 65° WNW 01:50:41 10° NNE
Cosmos 1515 Rocket 3.5 01:40:54 10° S 01:45:13 90° W 01:49:35 10° N
Cosmos 1633 Rocket 4.2 01:43:04 10° NNW 01:47:15 44° W 01:51:22 10° SSW
DELTA 2 DEB (DPAF) 4.5 01:43:20 10° N 01:47:31 67° WNW 01:51:41 10° SSW
IRIDIUM 103 4.4 01:42:50 10° N 01:48:06 86° E 01:53:19 10° S
Okean-O 2.7 01:44:01 10° SSE 01:48:22 67° ENE 01:52:45 10° N
Cosmos 1908 3.7 01:44:58 10° N 01:48:23 39° ENE 01:51:46 10° SSE
ATLAS CENTAUR R/B 2.1 01:45:53 10° SSE 01:48:38 22° ESE 01:51:26 10° ENE
CARTOSAT-1 4.5 01:45:42 10° S 01:49:49 48° W 01:53:57 10° NNW
Cosmos 468 Rocket 4.0 01:45:56 10° NNW 01:51:09 69° ENE 01:56:17 10° SSE
Ariane Rocket 4.3 01:49:30 10° ESE 01:53:36 25° ENE 01:57:43 10° NNE
Cosmos 2278 4.0 01:50:52 10° NNW 01:56:31 58° ENE 02:01:45 12° SE
ATLAS 2AS CENTAUR R/B 3.9 01:53:58 10° NNW 01:59:57 31° NE 02:05:44 10° E
Cosmos 1470 Rocket 4.4 01:58:31 10° NNW 02:02:43 48° W 02:06:51 10° SSW
Timation 1 Rocket 4.5 01:57:14 10° S 02:02:58 53° ESE 02:08:45 10° NE
Cosmos 2228 Rocket 4.3 02:02:00 13° SE 02:05:12 25° E 02:08:57 10° NNE
Cosmos 1470 2.7 02:01:42 10° N 02:05:24 78° W 02:09:04 10° S
Cosmos 1869 Rocket 3.9 02:01:29 10° N 02:05:50 50° E 02:09:37 13° SSE
Cosmos 540 Rocket 3.6 02:00:48 10° NNW 02:05:57 79° WSW 02:11:03 10° SSE
Meteor 1-13 Rocket 4.3 02:00:26 10° S 02:06:12 71° E 02:11:52 10° NNE
Cosmos 1553 Rocket 4.1 02:00:04 10° N 02:06:17 88° W 02:12:34 10° S
Okean O Rocket 2.9 02:02:59 10° SSW 02:07:06 39° W 02:11:13 10° NNW
Cosmos 2219 Rocket 4.2 02:03:41 10° N 02:07:09 16° NE 02:10:36 10° E
BREEZE-M DEB (TANK) 4.2 02:05:54 10° NNW 02:07:26 17° NNE 02:09:08 10° ENE
S3M 4.3 02:04:04 10° N 02:10:17 53° ENE 02:15:45 13° SSE
MOS 1 Rocket 4.4 02:07:54 13° SE 02:12:08 38° ENE 02:16:59 10° N
Cosmos 2237 4.3 02:07:52 10° NNW 02:13:37 70° ENE 02:18:21 15° SSE
MOS 1 4.4 02:09:27 10° S 02:15:05 78° WSW 02:20:46 10° NNW
Cosmos 2266 Rocket 4.1 02:10:52 10° S 02:17:05 66° E 02:23:25 10° NNE
Cosmos 968 Rocket 4.2 02:15:24 12° SSE 02:19:29 34° E 02:24:07 10° NE
SeaSat 1 2.8 02:18:09 16° SE 02:21:54 54° ENE 02:26:42 10° NNW
Tiangong -0.7 02:21:05 10° W 02:23:44 25° SSW 02:24:57 19° S
SPOT 3 Rocket 4.1 02:20:05 17° SE 02:23:45 42° ENE 02:28:37 10° N
Cosmos 1655 Rocket 4.3 02:17:55 11° SSE 02:23:51 51° E 02:30:01 10° NNE
IRS-1C Rocket 4.1 02:19:19 13° SSE 02:24:06 87° ENE 02:29:24 10° NNW
SPOT 5 2.8 02:22:14 12° S 02:26:13 70° WSW 02:30:36 10° NNW
Cosmos 1933 Rocket 4.2 02:22:34 10° NNW 02:26:54 54° W 02:31:13 10° S
SL-14 R/B 3.6 02:24:50 19° SSE 02:27:07 41° E 02:30:42 10° NNE
Cosmos 1741 Rocket 4.1 02:22:19 10° S 02:27:27 57° ESE 02:32:38 10° NNE
Cosmos 2360 Rocket 2.9 02:27:38 10° NNW 02:33:03 43° ENE 02:36:45 19° ESE
In-Cosmos 22 4.4 02:27:25 10° SSW 02:33:04 76° W 02:38:36 10° N
Cosmos 1346 Rocket 3.6 02:30:57 10° N 02:34:29 34° ENE 02:36:07 23° ESE
Cosmos 1862 Rocket 4.2 02:33:48 22° SE 02:36:04 38° E 02:40:10 10° NNE
Okean 3 4.4 02:34:34 22° SE 02:36:07 29° E 02:39:43 10° NNE
Resurs 01 Rocket 4.3 02:35:56 10° SW 02:38:21 14° W 02:40:46 10° WNW
Meteor 1-23 Rocket 4.2 02:38:12 10° S 02:43:51 88° E 02:49:36 10° N
SL-16 R/B 2.3 02:39:41 10° NNW 02:45:22 76° WSW 02:49:14 21° SSE
RESURS DK-1 2.2 02:43:24 10° NNW 02:47:29 85° ENE 02:49:28 29° SSE
Cosmos 2333 Rocket 2.6 02:44:10 10° NNW 02:49:48 53° ENE 02:53:10 24° SE
Meteor 1-15 Rocket 4.4 02:46:16 10° NNW 02:51:50 72° W 02:56:04 18° S
Helios 1B 4.5 02:47:37 10° NNE 02:51:58 83° ESE 02:55:07 18° S
SJ 16-02 1.6 02:50:26 27° SSE 02:52:22 47° ESE 02:56:31 10° NNE
ERS-1 Rocket 3.3 02:49:41 18° S 02:53:25 64° WSW 02:58:26 10° NNW
Cosmos 1707 Rocket 3.5 02:53:33 22° S 02:56:24 80° E 03:00:51 10° N
Cosmos 1758 3.2 02:52:52 10° N 02:56:48 86° ENE 02:58:34 32° S
Cosmos 841 Rocket 3.8 02:54:07 10° NNW 02:59:19 62° WSW 03:02:35 23° S
Terra 2.1 02:56:42 21° S 02:59:45 64° WSW 03:04:27 10° NNW
Cosmos 1833 4.1 02:54:31 10° SSW 03:00:07 73° ESE 03:05:44 10° NNE
SL-27 R/B 2.3 02:59:50 28° SW 03:01:01 58° WNW 03:03:46 10° N
Atlas Centaur 2 3.8 02:54:45 10° WSW 03:01:47 32° SSW 03:05:10 24° SSE
USA 234 3.7 02:58:24 10° NE 03:04:52 66° NW 03:11:19 10° WSW
Spot 2 Rocket 3.7 03:04:15 23° S 03:07:24 65° WSW 03:12:28 10° NNW
Aureole 3 3.4 03:06:44 37° SSE 03:08:12 70° E 03:12:53 10° NNE
Cosmos 2315 Rocket 4.1 03:02:00 10° N 03:08:24 81° W 03:12:38 23° S
SL-4 R/B 4.5 03:07:02 10° NW 03:09:56 19° N 03:12:58 10° NE
CZ-4C R/B 3.9 03:13:34 12° E 03:13:34 12° E 03:14:18 10° ENE
Cosmos 1300 2.8 03:08:40 10° NNW 03:12:11 60° W 03:13:23 36° SSW
Meteor 1-16 Rocket 4.5 03:07:02 10° N 03:12:55 61° ENE 03:15:43 31° SSE
Cosmos 807 4.4 03:11:55 39° SSW 03:12:59 69° W 03:16:00 10° N
Cosmos 1932 4.4 03:07:43 10° SSW 03:14:04 77° ESE 03:20:22 10° NE
ARIANE 5 R/B 4.1 03:15:40 20° E 03:16:52 23° ENE 03:20:16 10° NNE
Cosmos 2333 4.3 03:12:42 10° NNW 03:18:30 70° ENE 03:21:08 33° SE
Cosmos 1733 Rocket 3.2 03:14:50 10° NNW 03:19:15 71° W 03:21:04 34° S
Okean 1-7 3.1 03:19:44 43° SSE 03:20:50 58° E 03:25:05 10° NNE
Meteor 1-4 Rocket 1.9 03:21:00 86° NE 03:21:00 86° NE 03:23:58 10° N
Meteor 2-20 4.4 03:14:56 10° N 03:21:08 90° E 03:24:24 30° S
ATLAS CENTAUR R/B 3.2 03:23:10 10° WSW 03:26:08 25° NW 03:29:11 10° N
Cosmos 2322 Rocket 2.6 03:21:58 10° NNW 03:27:30 55° WSW 03:30:11 29° S
Okean 2 3.2 03:30:42 56° SSE 03:31:24 74° E 03:35:26 10° NNE
Cosmos 2297 Rocket 3.9 03:32:33 16° E 03:32:33 16° E 03:35:35 10° ENE
Ariane Rocket 4.0 03:29:26 21° SSW 03:32:17 40° W 03:37:04 10° NNW
Cosmos 1242 Rocket 3.8 03:34:06 22° NE 03:34:06 22° NE 03:35:24 10° NNE
Cosmos 1908 Rocket 3.8 03:29:50 10° N 03:34:04 50° E 03:34:47 45° ESE
GP-B 3.7 03:31:08 10° NNE 03:35:18 40° E 03:35:47 38° ESE
Cosmos 1315 Rocket 2.7 03:38:28 54° SSW 03:39:19 82° W 03:43:19 10° N
Cosmos 1953 2.1 03:37:15 10° N 03:41:03 69° E 03:41:18 66° ESE
BlueWalker 3 1.8 03:48:26 57° WSW 03:49:08 83° NW 03:52:53 10° NE
PSLV R/B 4.4 03:46:09 10° NNE 03:49:38 42° E 03:49:38 42° E
Cosmos 1745 Rocket 4.2 03:48:52 39° SE 03:50:57 55° E 03:57:08 10° NNE
ATLAS 2AS CENTAUR R/B 2.7 03:44:37 10° NW 03:51:18 64° WSW 03:53:50 38° S
Cosmos 2219 Rocket 2.1 03:46:10 10° NNW 03:51:53 88° WSW 03:53:40 46° SSE
Cosmos 1300 Rocket 4.4 03:49:49 10° N 03:53:46 34° ENE 03:54:04 34° E
COSMOS 2428 3.3 03:49:17 10° NNW 03:54:48 47° ENE 03:56:49 33° ESE
USA 281 3.4 03:54:58 35° SE 03:57:50 64° ENE 04:04:21 10° NNW
SeaSat 1 4.3 03:57:51 17° SW 03:59:36 20° WSW 04:03:08 10° WNW
Cosmos 1408 4.2 04:03:14 21° NE 04:03:14 21° NE 04:04:31 10° NNE
Nadezhda 1 Rocket 4.0 03:56:07 10° N 04:02:22 67° E 04:04:20 44° SE
Cosmos 1386 Rocket 4.4 04:00:17 42° S 04:02:37 80° E 04:08:50 10° N
Cosmos 1570 Rocket 4.1 03:59:37 10° NNW 04:04:59 71° ENE 04:06:15 51° SE
ALOS 2 4.0 04:06:37 25° E 04:07:15 26° ENE 04:10:54 10° NNE
Cosmos 158 Rocket 4.4 04:03:02 10° N 04:08:12 52° ENE 04:09:23 43° ESE
Cosmos 1455 2.6 04:06:48 10° NNW 04:09:56 49° WNW 04:09:56 49° WNW
Cosmos 1703 Rocket 4.0 04:11:48 46° SW 04:12:45 58° W 04:17:10 10° N
SL-24 R/B - RUBIN 2 4.4 04:10:11 10° NW 04:16:42 70° WSW 04:18:17 50° S
Cosmos 2360 Rocket 3.5 04:12:04 10° NW 04:16:46 27° WSW 04:18:30 23° SW
Cosmos 1703 4.5 04:18:25 29° ENE 04:18:25 29° ENE 04:20:50 10° NNE
H-2A R/B 2.6 04:22:37 62° E 04:22:44 63° ENE 04:26:58 10° N
COSMOS 2455 2.7 04:27:48 49° SSW 04:29:32 82° ESE 04:35:36 10° NNE
Cosmos 839 Rocket 4.5 04:23:34 10° NW 04:29:49 47° WSW 04:31:15 40° SSW
SJ 16-02 3.9 04:28:14 10° W 04:30:58 16° WNW 04:33:43 10° NNW
Cosmos 2242 Rocket 3.5 04:31:59 81° SE 04:32:06 82° E 04:36:41 10° N
Cosmos 836 Rocket 4.4 04:27:30 10° NNW 04:32:44 76° ENE 04:33:30 62° SE
Cosmos 2333 Rocket 3.8 04:29:19 10° NW 04:33:38 22° W 04:35:10 20° WSW
NOSS 0 Rocket 4.0 04:33:33 10° NNW 04:39:48 73° ENE 04:41:34 49° SE
Cosmos 2208 Rocket 3.8 04:34:45 10° NNW 04:39:56 77° WSW 04:40:30 68° SSW
CZ-3 Stage 3 4.0 04:10:18 10° W 04:40:34 44° SSW 04:43:32 38° S
Cosmos 1825 4.4 04:45:15 15° ENE 04:45:15 15° ENE 04:46:24 10° NE
Cosmos 1777 Rocket 4.1 04:44:04 56° ESE 04:44:15 56° ESE 04:49:26 10° NNE
Cosmos 1503 Rocket 3.9 04:44:15 66° SE 04:44:42 69° ESE 04:49:59 10° NNE
CENTAUR R/B 3.3 04:46:01 30° ESE 04:46:01 30° ESE 04:51:07 10° NE
SL-16 R/B 4.5 04:42:04 10° N 04:45:44 17° NE 04:49:22 10° E
SL-4 R/B 3.2 04:45:37 10° NW 04:49:29 41° NNE 04:50:41 33° ENE
Cosmos 371 Rocket 3.2 04:49:55 69° WSW 04:50:21 75° WNW 04:55:11 10° NNE
Cosmos 1709 Rocket 4.0 04:48:29 48° SSW 04:50:22 77° W 04:56:46 10° N
Cosmos 2237 Rocket 2.6 04:47:20 10° NNW 04:52:53 54° ENE 04:54:21 42° ESE
ARIANE 5 R/B 3.7 04:53:07 32° W 04:53:07 32° W 04:56:58 10° NNW
Cosmos 2227 Rocket 2.7 04:55:36 42° ESE 04:55:43 42° ESE 05:01:02 10° NE
Cosmos 2322 4.2 04:51:14 10° NW 04:56:36 45° WSW 04:57:14 43° SW
CZ-4C R/B 2.1 04:58:36 52° W 04:59:26 63° NW 05:04:49 10° NNE
Meteor 1-24 Rocket 3.7 04:58:53 62° S 04:59:57 89° W 05:05:38 10° N
Cosmos 2184 Rocket 4.5 05:04:30 41° ESE 05:05:49 47° E 05:11:53 10° NNE
Cosmos 1980 3.7 05:00:32 10° NNW 05:06:13 74° ENE 05:07:17 58° SE
Okean 1 Rocket 4.3 05:03:21 10° NNE 05:07:12 30° ENE 05:07:20 30° E
PSLV R/B 3.6 05:10:25 10° NNE 05:14:11 70° NNE 05:14:11 70° NNE
Cosmos 2297 Rocket 2.3 05:14:18 52° SW 05:15:36 69° WNW 05:21:16 10° NNE
Cosmos 2084 Rocket 3.6 05:19:51 68° NNW 05:19:51 68° NNW 05:23:42 10° NNE
Cosmos 2219 4.0 05:19:41 36° ESE 05:19:48 36° ESE 05:24:52 10° NE
Cosmos 2154 Rocket 4.3 05:21:34 45° SE 05:22:51 52° E 05:28:54 10° NNE
Cosmos 783 Rocket 4.4 05:17:43 10° NNW 05:23:02 82° ENE 05:23:36 71° SE
H-2A R/B 2.2 05:22:34 10° NNE 05:26:17 63° NE 05:26:17 63° NE
Cosmos 1354 Rocket 4.1 05:26:08 59° WSW 05:26:55 68° WNW 05:32:14 10° NNE
BlueWalker 3 4.5 05:24:55 10° WNW 05:27:45 20° NNW 05:30:36 10° NNE
Cosmos 405 Rocket 3.7 05:26:25 10° NNW 05:29:10 43° NW 05:29:10 43° NW
Cosmos 2098 Rocket 4.1 05:25:31 10° NNW 05:32:02 62° W 05:33:21 51° SW
NOSS 3-2 (A) 3.6 05:34:24 42° ESE 05:34:24 42° ESE 05:39:35 10° NE
Cosmos 2219 Rocket 4.4 05:33:16 10° WNW 05:34:53 11° W 05:35:22 11° W
COSMOS 2428 4.0 05:34:09 10° NW 05:38:42 25° WSW 05:38:48 25° WSW
Cosmos 2151 Rocket 3.8 05:36:42 10° NNW 05:40:39 60° WNW 05:40:39 60° WNW
USA 281 4.5 05:41:51 23° WSW 05:42:43 24° WSW 05:47:52 10° NW
ALOS 2 4.0 05:44:00 28° W 05:44:00 28° W 05:47:18 10° NW
Cosmos 1455 Rocket 4.3 05:39:30 10° NNE 05:43:29 31° ENE 05:44:02 30° E
Cosmos 332 Rocket 3.9 05:43:54 62° W 05:44:17 64° WNW 05:49:09 10° NNE
Cosmos 2263 Rocket 2.7 05:47:06 41° ESE 05:47:30 42° ESE 05:52:43 10° NE
Okean 2 Rocket 3.4 05:43:07 10° NNW 05:47:13 58° WNW 05:47:13 58° WNW
Cosmos 1674 Rocket 4.0 05:48:08 50° WNW 05:48:08 50° WNW 05:52:13 10° N
Cosmos 1378 Rocket 4.3 05:48:39 41° WNW 05:48:39 41° WNW 05:52:44 10° N
Cosmos 1892 4.0 05:53:04 32° NW 05:53:04 32° NW 05:55:27 10° N
Cosmos 1025 Rocket 3.1 05:52:53 68° ENE 05:52:53 68° ENE 05:56:55 10° NNE
Cosmos 2181 Rocket 4.4 05:51:45 10° NNW 05:57:37 47° W 05:58:44 42° WSW
Cosmos 1328 4.3 06:02:28 54° NNW 06:02:28 54° NNW 06:05:42 10° N
Cosmos 2074 Rocket 4.2 06:03:57 46° SW 06:05:27 58° W 06:11:35 10° N
Cosmos 990 Rocket 4.0 06:08:04 59° WSW 06:08:44 66° WNW 06:13:51 10° NNE
SL-12 R/B(2) 4.3 06:07:20 36° SW 06:11:12 79° NW 06:20:49 10° NE
Cosmos 1825 4.1 06:18:44 19° NW 06:18:44 19° NW 06:20:36 10° NNW
In-Cosmos 22 Rocket 4.3 06:19:43 52° SSE 06:21:03 70° E 06:26:53 10° NNE
IDEFIX/ARIANE 42P 3.9 06:21:51 10° NE 06:26:22 29° E 06:27:56 25° SE
SL-4 R/B 4.2 06:24:21 10° WNW 06:25:23 17° WNW 06:25:23 17° WNW
SL-16 R/B 2.1 06:24:51 10° NNW 06:30:34 83° WSW 06:32:00 52° SSE
Cosmos 1538 Rocket 3.9 06:26:21 10° NNW 06:31:30 64° WSW 06:32:02 60° SW
CENTAUR R/B 3.1 06:33:07 28° WSW 06:35:51 47° NW 06:42:33 10° NNE
Cosmos 2237 Rocket 3.7 06:32:21 10° NW 06:36:08 21° W 06:36:08 21° W
Cosmos 2082 3.6 06:36:51 53° SW 06:38:13 79° WNW 06:43:52 10° NNE
GEOS 3 Rocket 4.5 06:34:00 10° NNE 06:38:50 42° NW 06:41:03 27° W
Cosmos 2227 Rocket 3.6 06:37:22 21° W 06:39:52 29° NW 06:44:48 10° N
CZ-2C R/B 4.2 06:36:30 12° SE 06:40:40 31° ENE 06:45:20 10° N
MOZ.5/SAFIR/RUBIN 5/SL-8 4.3 06:39:24 36° SE 06:40:58 53° ENE 06:45:29 10° N
Cosmos 372 Rocket 3.9 06:40:30 59° SSW 06:41:31 88° WNW 06:46:46 10° NNE
CZ-2D R/B 3.5 06:38:54 10° NE 06:43:30 29° E 06:45:38 22° SE
CRYOSAT 2 4.3 06:38:44 10° N 06:43:39 77° W 06:44:26 61° SSW
Cosmos 1943 4.3 06:38:51 10° N 06:44:09 41° ENE 06:49:26 10° SE
Nadezhda 3 Rocket 4.5 06:38:36 10° NNW 06:44:29 44° W 06:45:55 38° WSW
USA 238 DEB 4.3 06:45:17 31° SSE 06:47:08 38° ESE 06:53:05 10° NE
USA 238 4.3 06:45:20 31° SSE 06:47:11 38° ESE 06:53:07 10° NE
Cosmos 2218 Rocket 4.0 06:45:40 40° SSE 06:48:00 73° E 06:54:11 10° NNE
Cosmos 1606 2.8 06:45:44 10° N 06:49:14 62° ENE 06:49:14 62° ENE
Cosmos 2228 3.9 06:47:56 10° N 06:52:05 44° ENE 06:53:30 32° SE
Cosmos 2366 rocket 4.0 06:51:04 41° S 06:53:26 84° E 06:59:42 10° N
Cosmos 1544 Rocket 3.7 06:50:58 10° N 06:55:25 68° E 06:56:27 49° SE
Meteor 1-11 4.3 06:56:29 46° SSW 06:58:15 72° W 07:04:04 10° N
H-2A R/B 4.1 06:54:58 10° NNE 06:58:47 42° E 06:59:26 39° SE
Cosmos 923 Rocket 3.9 06:54:11 10° NNW 06:59:27 85° WSW 07:01:11 44° SSE
Cosmos 1937 Rocket 3.6 07:00:05 47° SW 07:01:29 69° WNW 07:06:44 10° NNE
Aureole 1 Rocket 4.2 07:02:21 25° WNW 07:02:49 26° WNW 07:06:23 10° N
NPP 3.9 06:58:18 10° NNE 07:03:39 62° ESE 07:05:42 37° SSE
ADEOS II 3.5 06:59:09 10° NE 07:03:43 29° E 07:06:31 19° SE
Cosmos 2219 4.3 07:01:34 24° W 07:03:54 33° WNW 07:08:59 10° N
Cosmos 1975 Rocket 3.9 07:05:59 34° W 07:06:25 35° WNW 07:10:28 10° N
Cosmos 1898 Rocket 4.1 07:05:14 35° WSW 07:06:43 44° WNW 07:11:41 10° N
Cosmos 2227 4.2 07:11:34 40° S 07:13:42 78° ESE 07:19:28 10° NNE
Resurs 1-4 Rocket 2.3 07:14:32 10° NNE 07:19:48 67° ESE 07:22:10 33° S
Cosmos 1844 4.5 07:19:48 26° SSE 07:22:36 45° ESE 07:28:05 10° NE
Helios 1A Rocket 3.9 07:23:30 28° W 07:23:30 28° W 07:26:22 10° NW
SL-16 R/B 3.8 07:17:41 10° SE 07:23:22 39° ENE 07:29:04 10° N
SL-8 Rocket 4.4 07:21:49 33° SW 07:24:12 49° WNW 07:30:12 10° N
Cosmos 921 Rocket 4.4 07:22:11 10° N 07:26:06 36° ENE 07:29:57 10° SE
Cosmos 1461 4.1 07:28:39 25° W 07:29:52 30° NW 07:33:20 10° NNE
NOSS 3-2 (C) 3.5 07:28:54 30° WSW 07:31:22 57° NW 07:37:22 10° NNE
Cosmos 2263 Rocket 3.5 07:28:45 19° W 07:31:31 29° NW 07:36:20 10° N
COSMOS 2441 4.5 07:30:52 10° NNE 07:35:40 70° ESE 07:38:00 30° S
USA 267 3.9 07:29:47 10° ENE 07:35:56 42° SE 07:39:25 24° S
Cosmos 1536 Rocket 3.6 07:34:38 42° SSW 07:35:59 66° W 07:40:24 10° N
Cosmos 1680 Rocket 3.7 07:36:12 10° NNW 07:41:12 48° WSW 07:43:08 32° SSW
Cosmos 2112 Rocket 4.1 07:38:54 10° NNW 07:43:57 54° WSW 07:46:21 29° SSW
Cosmos 2239 Rocket 4.5 07:40:53 24° S 07:44:50 81° E 07:50:59 10° N
Cosmos 1727 Rocket 4.0 07:40:23 10° N 07:46:44 78° W 07:51:19 20° S
Cosmos 1818 3.9 07:43:46 10° NW 07:48:56 44° WSW 07:51:34 26° S
Cosmos 1844 Rocket 2.6 07:47:26 29° SSW 07:50:26 88° ESE 07:56:02 10° NNE
SL-08 R/B 4.5 07:48:24 23° S 07:52:35 88° W 07:58:52 10° N
Cosmos 1437 Rocket 3.0 07:54:44 36° SW 07:55:53 50° WNW 07:59:35 10° N
Meteor 1-27 4.4 07:51:53 10° NNW 07:57:37 59° W 08:01:20 22° SSW
Delta 2 Rocket 4.0 07:57:56 31° S 07:57:56 31° S 08:01:34 10° SE
Meteor 2-13 Rocket 4.5 07:52:22 10° NNW 07:58:22 62° W 08:02:34 20° SSW
SEDSat Delta rocket 4.4 07:59:34 19° SSE 07:59:34 19° SSE 08:01:56 10° SE
Cosmos 1000 Rocket 4.5 07:52:49 10° N 07:59:08 88° W 08:04:53 12° S
IDEFIX/ARIANE 42P 3.5 08:01:09 10° N 08:05:53 35° WNW 08:08:41 21° WSW
ASTEX 1 3.3 08:04:21 16° S 08:08:16 87° W 08:13:10 10° N
SL-16 R/B 4.2 08:12:56 10° W 08:13:41 10° W 08:13:49 10° W
Timation 2 Rocket 4.3 08:08:32 17° S 08:13:49 66° ESE 08:20:10 10° NNE
CZ-2C R/B 4.3 08:10:17 10° NE 08:13:51 22° E 08:17:25 10° SE
Envisat 4.2 08:10:16 10° NNE 08:15:01 39° E 08:19:44 10° SSE
CZ-2C R/B 3.5 08:10:39 10° N 08:15:49 48° WNW 08:19:02 21° SW
Cosmos 1048 Rocket 4.0 08:11:45 10° NNW 08:17:00 87° WSW 08:22:18 10° SSE
Cosmos 1603 3.8 08:13:55 10° NNW 08:19:31 55° WSW 08:25:03 10° S
CZ-2C R/B 3.3 08:17:59 20° SSW 08:20:49 34° W 08:25:41 10° NNW
CZ-2D R/B 3.0 08:18:42 10° N 08:23:31 36° WNW 08:26:55 17° WSW
Cosmos 1892 Rocket 3.6 08:22:12 19° SSW 08:25:18 70° W 08:29:44 10° N
Cosmos 1125 Rocket 3.5 08:21:21 17° SSW 08:25:24 89° ESE 08:30:44 10° NNE
Cosmos 1544 3.4 08:24:37 14° SSE 08:26:36 38° E 08:29:05 10° NNE
Cosmos 2058 Rocket 3.4 08:22:26 10° N 08:26:52 66° E 08:31:13 10° SSE
UNK 3.9 08:22:27 10° SSE 08:27:03 76° ENE 08:31:38 10° N
Cosmos 1943 4.1 08:23:15 10° NW 08:27:57 28° WSW 08:31:17 16° SSW
Cosmos 494 Rocket 4.3 08:24:37 10° NNW 08:29:38 47° WSW 08:34:38 10° S
FENGYUN 3A 4.1 08:25:10 10° N 08:30:19 48° WNW 08:34:19 16° SW
Cosmos 1607 3.9 08:25:21 10° NW 08:31:45 79° WSW 08:38:00 10° SSE
AQUA 4.3 08:32:56 10° N 08:37:25 44° WNW 08:40:58 15° SW
USA 238 DEB 4.3 08:32:42 13° WSW 08:37:56 42° NW 08:44:18 10° NNE
USA 238 4.3 08:32:45 13° WSW 08:37:58 43° NW 08:44:22 10° NNE
YAOGAN 6 4.3 08:36:31 10° NE 08:39:15 25° E 08:41:56 10° SSE
Cosmos 2150 Rocket 4.3 08:35:49 10° S 08:40:58 67° ESE 08:46:14 10° NNE
Cosmos 1812 2.6 08:38:37 10° NNW 08:42:09 58° W 08:45:38 10° S
Iridium 4 Rocket 3.3 08:37:54 10° N 08:42:25 89° W 08:47:21 10° S
ADEOS II 3.0 08:38:36 10° N 08:43:19 35° WNW 08:47:23 13° SW
ALOS 2.6 08:39:27 10° N 08:43:56 51° WNW 08:47:51 13° SW
Cosmos 1605 Rocket 4.0 08:38:49 10° S 08:45:02 88° E 08:51:12 10° N
BlueWalker 3 4.4 08:43:09 10° NNW 08:46:17 24° NNE 08:49:23 10° E
Orbus 7S? 4.5 08:45:46 10° WNW 08:48:58 32° SW 08:54:44 10° SSE
Cosmos 1626 Rocket 3.8 08:46:58 10° S 08:51:22 72° E 08:55:47 10° NNE
USA 81 4.2 08:46:16 10° NNW 08:51:26 58° W 08:56:35 10° SSW
SAR-Lupe-4 4.1 08:49:30 10° N 08:52:53 42° WNW 08:55:53 12° SW
Meteor 2-19 Rocket 4.5 08:51:08 10° NNW 08:57:15 67° W 09:03:20 10° S
Resurs 1-4 Rocket 3.9 08:55:43 10° NNW 08:59:01 17° WNW 09:02:21 10° W
ATLAS 5 CENTAUR R/B 1.1 08:56:45 11° SSW 08:59:52 61° ESE 09:03:18 10° NE
NOSS 2-3 (D) 4.0 08:56:39 10° SSW 09:00:09 44° ESE 09:03:49 10° NE
Cosmos 1782 3.3 08:56:56 10° N 09:00:44 59° E 09:04:30 10° SSE
Cosmos 921 Rocket 4.5 09:01:07 10° NW 09:03:57 18° W 09:06:45 10° SW
Cosmos 1833 Rocket 4.0 08:58:37 10° NNW 09:04:02 46° ENE 09:09:26 10° SE
SL-16 R/B 3.2 09:01:17 10° SSW 09:06:55 35° W 09:12:35 10° NNW
Thor Agena Rocket 4.1 09:05:04 10° NNE 09:10:19 61° ESE 09:15:29 10° S
NOSS 2-2 (C) 2.8 09:07:52 10° SW 09:11:13 72° NW 09:14:18 10° NNE
Cosmos 2058 3.9 09:10:26 10° SW 09:13:59 29° WNW 09:17:35 10° NNW
CZ-4 R/B 4.1 09:11:28 10° N 09:16:20 62° WNW 09:21:14 10° SSW
Cosmos-2242 3.0 09:14:01 10° N 09:18:20 80° W 09:22:36 10° S
USA 267 3.7 09:12:40 10° NE 09:19:03 59° NW 09:25:26 10° WSW
Cosmos 1666 4.1 09:16:10 10° SSE 09:19:17 34° E 09:22:26 10° NNE
Meteor 2-3 Rocket 3.9 09:14:16 10° S 09:20:02 88° W 09:25:53 10° N
Cosmos 2298 Rocket 4.4 09:17:06 10° SW 09:22:17 52° WNW 09:27:30 10° N
Cosmos 614 Rocket 4.1 09:17:11 10° NNW 09:22:21 82° ENE 09:27:26 10° SSE
